Location: Newark
(49.3000°N, 9.4667°E)
Time: 02:38:16
(UTC+00:00)

Transit 2A Rocket - All Passes

Search period start: 23 May 2019 00:00
Search period end: 02 June 2019 00:00
Orbit: 585 x 918 km, 66.7° (Epoch: 21 May)

Date Brightness Start Highest point End Pass type
(mag) Time Alt. Az. Time Alt. Az. Time Alt. Az.
23 May - 00:04:39 10° NNW 00:09:54 33° NE 00:14:45 10° ESE visible
23 May - 01:47:20 10° NW 01:52:56 60° WSW 01:57:59 10° SSE visible
23 May - 16:24:26 10° S 16:30:14 47° ESE 16:36:03 10° NE daylight
23 May - 18:07:08 10° WSW 18:13:01 45° NW 18:18:49 10° NNE daylight
23 May - 19:53:02 10° WNW 19:57:11 18° NNW 20:01:14 10° NNE visible
23 May - 21:39:02 10° NNW 21:42:13 14° N 21:45:19 10° NE visible
23 May - 23:22:11 10° NNW 23:26:59 25° NNE 23:31:28 10° E visible
24 May - 01:04:42 10° NW 01:10:28 88° NE 01:15:39 10° SE visible
24 May - 02:48:46 10° WNW 02:52:13 17° WSW 02:55:28 10° SW visible
24 May - 15:42:42 10° S 15:47:56 31° ESE 15:53:12 10° NE daylight
24 May - 17:24:13 10° SW 17:30:18 63° NW 17:36:20 10° NNE daylight
24 May - 19:09:24 10° WNW 19:14:06 22° NNW 19:18:43 10° NNE daylight
24 May - 20:55:53 10° NNW 20:59:00 14° N 21:02:03 10° NNE visible
24 May - 22:39:41 10° NNW 22:43:58 20° NNE 22:48:02 10° ENE visible
25 May - 00:22:10 10° NNW 00:27:52 59° NE 00:33:01 10° SE visible
25 May - 02:05:27 10° NW 02:10:06 28° WSW 02:14:23 10° SSW visible
25 May - 15:01:29 10° SSE 15:05:45 20° ESE 15:10:01 10° ENE daylight
25 May - 16:41:34 10° SW 16:47:42 90° W 16:53:48 10° NE daylight
25 May - 18:25:54 10° W 18:31:08 28° NNW 18:36:15 10° NNE daylight
25 May - 20:12:27 10° NW 20:15:48 15° N 20:19:04 10° NNE visible
25 May - 21:57:06 10° NNW 22:00:52 17° NNE 22:04:29 10° ENE visible
25 May - 23:39:41 10° NNW 23:45:08 41° NE 23:50:07 10° ESE visible
26 May - 01:22:32 10° NW 01:27:51 44° WSW 01:32:40 10° S visible
26 May - 14:21:23 10° ESE 14:23:40 12° E 14:25:57 10° ENE daylight
26 May - 15:59:12 10° SSW 16:05:13 62° ESE 16:11:13 10° NE daylight
26 May - 17:42:36 10° WSW 17:48:15 37° NW 17:53:48 10° NNE daylight
26 May - 19:28:50 10° NW 19:32:38 17° NNW 19:36:19 10° NNE daylight
26 May - 21:14:23 10° NNW 21:17:43 15° N 21:20:56 10° NE visible
26 May - 22:57:14 10° NNW 23:02:18 30° NE 23:06:59 10° E visible
27 May - 00:39:50 10° NW 00:45:29 70° WSW 00:50:34 10° SSE visible
27 May - 02:25:04 10° W 02:26:54 12° W 02:28:43 10° WSW visible
27 May - 15:17:11 10° S 15:22:50 41° ESE 15:28:29 10° NE daylight
27 May - 16:59:30 10° WSW 17:05:28 50° NW 17:11:21 10° NNE daylight
27 May - 18:45:11 10° WNW 18:49:31 20° NNW 18:53:43 10° NNE daylight
27 May - 20:31:25 10° NNW 20:34:31 14° N 20:37:30 10° NE visible
27 May - 22:14:45 10° NNW 22:19:21 23° NNE 22:23:39 10° E visible
27 May - 23:57:15 10° NW 00:02:58 77° NE 00:08:07 10° SE visible
28 May - 01:40:59 10° WNW 01:44:52 20° WSW 01:48:31 10° SSW visible
28 May - 14:35:36 10° SSE 14:40:35 27° ESE 14:45:33 10° NE daylight
28 May - 16:16:41 10° SW 16:22:48 72° NW 16:28:51 10° NNE daylight
28 May - 18:01:36 10° W 18:06:28 24° NNW 18:11:14 10° NNE daylight
28 May - 19:48:11 10° NW 19:51:18 14° N 19:54:20 10° NNE visible
28 May - 21:32:14 10° NNW 21:36:18 19° NNE 21:40:09 10° ENE visible
28 May - 23:14:44 10° NNW 23:20:19 52° NE 23:25:23 10° ESE visible
29 May - 00:57:50 10° NW 01:02:43 32° WSW 01:07:10 10° S visible
29 May - 13:54:39 10° SE 13:58:25 17° ESE 14:02:11 10° ENE daylight
29 May - 15:34:07 10° SSW 15:40:14 80° ESE 15:46:19 10° NE daylight
29 May - 17:18:09 10° W 17:23:32 31° NW 17:28:46 10° NNE daylight
29 May - 19:04:40 10° NW 19:08:06 15° NNW 19:11:26 10° NNE daylight
29 May - 20:49:37 10° NNW 20:53:11 16° NNE 20:56:36 10° NE visible
29 May - 22:32:16 10° NNW 22:37:34 36° NE 22:42:24 10° ESE visible
30 May - 00:15:01 10° NW 00:20:25 52° WSW 00:25:19 10° SSE visible
30 May - 14:51:52 10° SSW 14:57:47 54° ESE 15:03:40 10° NE daylight
30 May - 16:34:55 10° WSW 16:40:41 41° NW 16:46:20 10° NNE daylight
30 May - 18:21:01 10° WNW 18:24:57 17° NNW 18:28:46 10° NNE daylight
30 May - 20:06:50 10° NNW 20:10:00 15° N 20:13:04 10° NE visible
30 May - 21:49:48 10° NNW 21:54:40 27° NNE 21:59:12 10° E visible
30 May - 23:32:21 10° NW 23:38:00 81° WSW 23:43:05 10° SSE visible
31 May - 01:16:53 10° WNW 01:19:35 14° WSW 01:22:11 10° SW visible
31 May - 14:09:58 10° S 14:15:27 35° ESE 14:20:54 10° NE daylight
31 May - 15:51:55 10° SW 15:57:56 57° NW 16:03:53 10° NNE daylight
31 May - 17:37:21 10° WNW 17:41:51 21° NNW 17:46:13 10° NNE daylight
31 May - 19:23:47 10° NNW 19:26:48 14° N 19:29:43 10° NNE daylight
31 May - 21:07:19 10° NNW 21:11:42 21° NNE 21:15:48 10° ENE visible
31 May - 22:49:48 10° NNW 22:55:27 67° NE 23:00:33 10° SE visible
01 Jun - 00:33:16 10° WNW 00:37:31 23° WSW 00:41:27 10° SSW visible
01 Jun - 13:28:34 10° SSE 13:33:13 23° ESE 13:37:51 10° ENE daylight
01 Jun - 15:09:10 10° SW 15:15:18 81° NW 15:21:23 10° NE daylight
01 Jun - 16:53:48 10° W 16:58:50 26° NNW 17:03:45 10° NNE daylight
01 Jun - 18:40:26 10° NW 18:43:35 14° N 18:46:39 10° NNE daylight
01 Jun - 20:24:47 10° NNW 20:28:37 18° NNE 20:32:16 10° ENE visible
01 Jun - 22:07:18 10° NNW 22:12:46 45° NE 22:17:43 10° ESE visible
01 Jun - 23:50:16 10° NW 23:55:19 37° WSW 23:59:54 10° S visible
